Zurück zum Katalog

FENGYUN 1C DEB

AktivPO
NORAD 31222·DEBRIS·🇨🇳 China

Gestartet May 10, 1999 von Taiyuan Satellite Launch Center

Loading…

Nächste Überflüge (nächste 24 Stunden)

TLE

AktuellSource: Space-Track

Epoche: Sep 11, 2026, 05:56 UTC

1 31222U 99025BLC 26254.24742940  .00006918  00000-0  40707-3 0  9991
2 31222  98.5924 358.0143 0150310 252.4168 106.0587 15.02947175 40700

Verfolge FENGYUN 1C DEB in Echtzeit mit AllMySat

Download on the App Store